Regional Weather Roundup
Issued by NWS Green Bay, WI

Home | Current Version | Previous Version | Text Only | Print | Product List | Glossary On
Versions: 1 2 3 4 5 6 7 8 9 10 11 12 13 14 15 16 17 18 19 20 21 22 23 24 25 26 27 28 29 30 31 32 33 34 35 36 37 38 39 40 41 42 43 44 45 46 47 48 49 50
000
ASUS43 KGRB 270810
RWRGRB

NORTH-CENTRAL AND NORTHEAST WISCONSIN REGIONAL WEATHER ROUNDUP
NATIONAL WEATHER SERVICE GREEN BAY WI
200 AM CST THU NOV 27 2014

WIZ005-009-010>012-018-019-270900-
NORTH CENTRAL WISCONSIN

CITY           SKY/WX    TMP DP  RH WIND       PRES   REMARKS
IRONWOOD       CLOUDY    12  10  92 NW8       30.27S WCI   1
MANITOWISH WTR CLOUDY    11   8  86 N6        30.24R WCI   1
ARBOR VITAE    PTCLDY    12   8  83 N7        30.23R WCI   2
EAGLE RIVER    MOCLDY    12   6  76 N8        30.22R WCI   0
LAND O LAKES   LGT SNOW  10   7  88 N5        30.23R WCI   2
RHINELANDER    LGT SNOW  12   8  84 N3        30.22R FOG
PHILLIPS       LGT SNOW  10   7  85 NW8       30.27R WCI  -1
ANTIGO         FLURRIES  16  12  84 N12       30.20R WCI   3
TOMAHAWK       LGT SNOW  14  10  87 CALM      30.24R
MERRILL        LGT SNOW  16  13  87 NW7       30.24R WCI   6
$$

WIZ013-073-270900-
NORTHEAST WISCONSIN

CITY           SKY/WX    TMP DP  RH WIND       PRES   REMARKS
IRON MOUNTAIN  CLOUDY    17   8  67 NW16      30.21R WCI   2
MARINETTE      CLOUDY    23  18  80 N12       30.20R
OCONTO         MOCLDY    23  20  87 NW7       30.22R
$$

WIZ017-030-035>037-045-270900-
CENTRAL WISCONSIN

CITY           SKY/WX    TMP DP  RH WIND       PRES   REMARKS
MEDFORD        CLOUDY    13   8  81 NW9       30.25R WCI   1
WAUSAU         CLOUDY    18  13  80 NW8       30.23R WCI   8
MOSINEE        CLOUDY    18  18 100 NW9       30.24R WCI   6
MARSHFIELD     FLURRIES  18  12  77 NW14      30.25R WCI   4
WISC RAPIDS    LGT SNOW  20  13  74 NW10      30.27R WCI   9
STEVENS POINT  CLOUDY    18  14  84 NW9       30.25R WCI   7
WAUPACA        CLOUDY    25  19  80 NW7       30.24R
SHAWANO        CLOUDY    25  20  82 NW3       30.23R
CLINTONVILLE   CLOUDY    23  19  86 NW7       30.23R
$$

WIZ038-039-048-051-270900-
FOX VALLEY

CITY           SKY/WX    TMP DP  RH WIND       PRES   REMARKS
NWS GREEN BAY  CLOUDY    24  20  84 NW9       30.22R
APPLETON       CLOUDY    23  21  93 NW9       30.22R
OSHKOSH        LGT SNOW  23  19  85 MISG      30.22R FOG
FOND DU LAC    LGT SNOW  23  19  85 NW9       30.22R FOG
$$

WIZ022-050-052-270900-
EAST CENTRAL WISCONSIN

CITY           SKY/WX    TMP DP  RH WIND       PRES   REMARKS
STURGEON BAY   CLOUDY    25  19  80 N15       30.19R
MANITOWOC      LGT SNOW  23  21  92 NW7       30.21R FOG
SHEBOYGAN      LGT SNOW  22  19  89 NW7       30.21R FOG
$$

LMZ563-521-522-541>543-270900-
LAKESHORE

STATION/POSITION TIME  TEMP    WIND        PRES    VSBY  WAVE
                       AIR SEA DIR/SP/G                  HT/PER
                 (UTC) (F)     (DEG/KT/KT) (MB)    (MI)  (FT/S)
SHEBOYGAN LKSHOR 0800   23 35  290/  9/ 11 1024.2R
KEWAUNEE LKSHORE 0800   23     300/  5/  7 1021.6R
ALGOMA MARINA    0700          320/  8/ 10   N/A
NORTHPORT PIER   0800   29     350/ 22/ 27 1022.4R
N MID LAKE BUOY  0800   29 42  350/ 23/ 27 1021.9F         1/ 3
CHAMBERS ISLAND  0800   27     320/ 16/ 19 1022.4S
MENOMINEE LKSHOR 0800   25     320/ 14/ 16 1023.2R
$$



USA.gov is the U.S. government's official web portal to all federal, state and local government web resources and services.